Weather History for KITH - June, 2013

Change the Weather History Date:

Thursday, June 20, 2013

  Actual Average Record
Temperature  
Mean Temperature 60 °F -  
Max Temperature 79 °F 77 °F 96 °F (1931)
Min Temperature 43 °F 54 °F 37 °F (1926)
Degree Days  
Heating Degree Days 5    
Growing Degree Days 10 (Base 50)    
Moisture  
Dew Point 48 °F    
Average Humidity 66    
Maximum Humidity 93    
Minimum Humidity 33    
Precipitation  
Precipitation 0.00 in - - ()
Sea Level Pressure  
Sea Level Pressure 30.25 in    
Wind  
Wind Speed 5 mph (ENE)    
Max Wind Speed 8 mph    
Max Gust Speed -    
Visibility 10 miles    
Events      
Averages and records for this station are not official NWS values.
T = Trace of Precipitation, MM = Missing Value Source: NWS Daily Summary

Daily Weather History Graph

Daily Weather History Graph

Search for Another Location

Airport or City:

Trip Planner

Search our weather history database for the weather conditions in past years. The results will help you decide how hot, cold, wet, or windy it might be!

Date:

Astronomy

Jun. 20, 2013 Rise Set
Actual Time 5:28 AM EDT 8:46 PM EDT
Civil Twilight 4:53 AM EDT 9:21 PM EDT
Nautical Twilight 4:08 AM EDT 10:06 PM EDT
Astronomical Twilight 3:12 AM EDT 11:02 PM EDT
Moon 5:44 PM EDT (6/20) 2:56 AM EDT (6/20)
Length of Visible Light 16h 27m
Length of Day
15h 18m
Waxing Gibbous, 89% of the Moon is Illuminated
Jun 20
Waxing Gibbous
Jun 23
Full
Jun 30
Last Quarter
Jul 8
New
Jul 15
First Quarter

Hourly Weather History & Observations

Time (EDT) Temp. Windchill Dew Point Humidity Pressure Visibility Wind Dir Wind Speed Gust Speed Precip Events Conditions
12:56 AM 45.9 °F 43.6 °F 43.0 °F 90% 30.24 in 10.0 mi East 4.6 mph - N/A   Clear
1:56 AM 45.0 °F 41.8 °F 41.9 °F 89% 30.24 in 10.0 mi East 5.8 mph - N/A   Clear
2:56 AM 45.0 °F 41.8 °F 41.9 °F 89% 30.24 in 10.0 mi East 5.8 mph - N/A   Clear
3:56 AM 43.9 °F 39.9 °F 41.9 °F 93% 30.24 in 10.0 mi East 6.9 mph - N/A   Clear
4:56 AM 43.9 °F 39.9 °F 41.0 °F 90% 30.25 in 10.0 mi East 6.9 mph - N/A   Clear
5:56 AM 43.9 °F 41.3 °F 39.9 °F 86% 30.26 in 10.0 mi East 4.6 mph - N/A   Clear
6:31 AM 46.4 °F 44.3 °F 41.0 °F 81% 30.26 in 10.0 mi East 4.6 mph - N/A   Clear
6:56 AM 46.9 °F - 41.9 °F 83% 30.27 in 10.0 mi East 4.6 mph - N/A   Clear
7:56 AM 54.0 °F - 45.0 °F 72% 30.27 in 10.0 mi East 3.5 mph - N/A   Clear
8:56 AM 61.0 °F - 46.9 °F 60% 30.28 in 10.0 mi SSE 3.5 mph - N/A   Clear
9:56 AM 68.0 °F - 47.8 °F 48% 30.28 in 10.0 mi SSW 6.9 mph - N/A   Clear
10:56 AM 70.0 °F - 46.9 °F 44% 30.28 in 10.0 mi Calm Calm - N/A   Clear
11:56 AM 72.0 °F - 47.8 °F 42% 30.27 in 10.0 mi SSW 4.6 mph - N/A   Clear
12:56 PM 73.9 °F - 50.0 °F 43% 30.25 in 10.0 mi NNW 6.9 mph - N/A   Partly Cloudy
1:56 PM 77.9 °F - 46.9 °F 33% 30.23 in 10.0 mi West 8.1 mph - N/A   Partly Cloudy
2:56 PM 77.0 °F - 47.8 °F 36% 30.24 in 10.0 mi South 5.8 mph - N/A   Partly Cloudy
3:56 PM 77.9 °F - 50.9 °F 39% 30.22 in 10.0 mi NNW 8.1 mph - N/A   Partly Cloudy
4:56 PM 77.9 °F - 48.9 °F 36% 30.22 in 10.0 mi Variable 4.6 mph - N/A   Scattered Clouds
5:56 PM 77.0 °F - 54.0 °F 45% 30.21 in 10.0 mi NW 6.9 mph - N/A   Partly Cloudy
6:56 PM 73.9 °F - 55.9 °F 53% 30.21 in 10.0 mi NW 8.1 mph - N/A   Clear
7:56 PM 66.9 °F - 55.9 °F 68% 30.22 in 10.0 mi NNW 4.6 mph - N/A   Partly Cloudy
8:56 PM 65.8 °F - 54.0 °F 65% 30.23 in 10.0 mi NNW 4.6 mph - N/A   Partly Cloudy
9:56 PM 57.9 °F - 54.0 °F 87% 30.25 in 10.0 mi Calm Calm - N/A   Partly Cloudy
10:56 PM 57.9 °F - 54.0 °F 87% 30.26 in 10.0 mi Calm Calm - N/A   Mostly Cloudy
11:56 PM 54.9 °F - 52.9 °F 93% 30.27 in 10.0 mi Calm Calm - N/A   Clear